This is the latest recevied weather packets stored in our database for station/object IZ1UQG-N2. If no packets are shown the sender has not sent any weather packets the latest 10 day(s).
| Time | Temp. | Humidity | Pressure | Rain* | Wind** | Luminosity | Snow |
|---|---|---|---|---|---|---|---|
| 1787761580 | 26.67° C | 68% | 1013.7 hPa | 0 mm | - | 70 W/m² | - |
| 1787761520 | 26.67° C | 68% | 1013.7 hPa | 0 mm | - | 67 W/m² | - |
| 1787761459 | 26.67° C | 68% | 1013.8 hPa | 0 mm | - | 58 W/m² | - |
| 1787761401 | 27.22° C | 68% | 1013.7 hPa | 0 mm | - | 54 W/m² | - |
| 1787761339 | 27.22° C | 68% | 1013.8 hPa | 0 mm | - | 53 W/m² | - |
| 1787761281 | 27.22° C | 67% | 1013.8 hPa | 0 mm | - | 49 W/m² | - |
| 1787761221 | 27.22° C | 68% | 1013.8 hPa | 0 mm | - | 46 W/m² | - |
| 1787761161 | 27.22° C | 67% | 1013.8 hPa | 0 mm | - | 44 W/m² | - |
| 1787761101 | 27.22° C | 67% | 1013.7 hPa | 0 mm | - | 40 W/m² | - |
| 1787761040 | 27.22° C | 67% | 1013.8 hPa | 0 mm | - | 40 W/m² | - |
| 1787760981 | 27.22° C | 67% | 1013.6 hPa | 0 mm | - | 42 W/m² | - |
| 1787760920 | 27.22° C | 66% | 1013.7 hPa | 0 mm | - | 42 W/m² | - |
| 1787760860 | 27.22° C | 66% | 1013.8 hPa | 0 mm | - | 42 W/m² | - |
| 1787760800 | 27.22° C | 66% | 1013.8 hPa | 0 mm | - | 42 W/m² | - |
| 1787760741 | 27.22° C | 66% | 1013.8 hPa | 0 mm | - | 39 W/m² | - |
| 1787760681 | 27.22° C | 65% | 1013.9 hPa | 0 mm | - | 35 W/m² | - |
| 1787760620 | 27.22° C | 65% | 1013.8 hPa | 0 mm | - | 35 W/m² | - |
| 1787760559 | 27.22° C | 64% | 1013.8 hPa | 0 mm | - | 33 W/m² | - |
| 1787760500 | 27.78° C | 64% | 1013.8 hPa | 0 mm | - | 33 W/m² | - |
| 1787760441 | 27.78° C | 64% | 1013.8 hPa | 0 mm | - | 33 W/m² | - |
| 1787760381 | 27.78° C | 64% | 1013.9 hPa | 0 mm | - | 35 W/m² | - |
| 1787760320 | 27.78° C | 64% | 1013.9 hPa | 0 mm | - | 35 W/m² | - |
| 1787760260 | 27.22° C | 65% | 1013.8 hPa | 0 mm | - | 37 W/m² | - |
| 1787760200 | 27.22° C | 65% | 1013.9 hPa | 0 mm | - | 37 W/m² | - |
| 1787760140 | 27.22° C | 65% | 1013.8 hPa | 0 mm | - | 37 W/m² | - |
* Rain latest hour (hover to see other rain measurements)
** Current wind speed in m/s (hover to see current wind gust speed)